Flag for U.S.A. Weather past 2 weeks in Birmingham, Alabama, U.S.A.

Now
74 °F

Partly sunny.


Feels Like: 72 °F
Forecast: 73 / 86 °F
Wind: 7 mph from Southwest

Location: Birmingham International Airport

Current Time: Jul 2, 2015 at 7:42:28 AM

Latest Report: Jul 2, 2015 at 7:00 AM


Visibility: 10 mi

Pressure: 30.04 "Hg

Humidity: 91%

Dew point: 71 °F

Location of BirminghamLocation

Historic Weather in Birmingham — Graph

°F

Birmingham temperature yesterday

Maximum temperature yesterday: 88 °F (at 1:53 PM)
Minimum temperature yesterday: 71 °F (at 5:00 AM)
Average temperature yesterday: 76 °F

Past Weeks' High & Low Weather Summary

 TemperatureHumidityPressure
High97 °F (Jun 24, 3:53 PM)100% (Jul 1, 11:53 PM)30.17 "Hg (Jul 1, 11:53 PM)
Low65 °F (Jun 29, 3:53 AM)32% (Jun 24, 4:53 PM)29.88 "Hg (Jun 27, 3:53 PM)
Average82 °F68%30.03 "Hg
* Reported Jun 17 5:53 AM — Jul 2 5:53 AM, Birmingham, Weather by CustomWeather, © 2015

Note: Actual official high and low records may vary slightly from our data, if they occured in-between our weather recording intervals... More about our weather records

Advertising

Birmingham weather history for previous 24 hours

 ConditionsComfort  
Time TempWeatherWind HumidityBarometerVisibility
5:53 AM
Thu, Jul 2
73 °FMostly cloudy.9 mph90%30.00 "Hg10 mi
4:53 AM73 °FPartly cloudy.8 mph90%30.00 "Hg10 mi
3:53 AM72 °FPassing clouds.7 mph93%29.99 "Hg10 mi
2:53 AM73 °FPassing clouds.8 mph90%29.99 "Hg10 mi
1:53 AM74 °FPassing clouds.6 mph91%30.00 "Hg10 mi
12:53 AM75 °FClear.6 mph85%30.02 "Hg10 mi
11:53 PM
Wed, Jul 1
71 °FOvercast.3 mph100%30.01 "Hg10 mi
10:53 PM72 °FOvercast.3 mph93%30.03 "Hg10 mi
9:53 PM73 °FMostly cloudy.6 mph90%30.03 "Hg10 mi
8:53 PM73 °FLight rain. Mostly cloudy.6 mph90%30.05 "Hg10 mi
7:53 PM73 °FPartly sunny.7 mph94%30.04 "Hg10 mi
6:53 PM73 °FOvercast.5 mph90%30.03 "Hg10 mi
5:53 PM72 °FThunderstorms. Cloudy.12 mph87%30.02 "Hg7 mi
4:53 PM84 °FOvercast.7 mph65%30.01 "Hg10 mi
3:53 PM83 °FOvercast.15 mph68%30.01 "Hg10 mi
2:53 PM85 °FCloudy.17 mph63%30.01 "Hg10 mi
1:53 PM88 °FBroken clouds.14 mph57%30.01 "Hg10 mi
12:53 PM86 °FBroken clouds.10 mph63%30.04 "Hg10 mi
11:53 AM82 °FMore clouds than sun.6 mph70%30.07 "Hg10 mi
10:53 AM81 °FOvercast.8 mph69%30.06 "Hg10 mi
9:53 AM77 °FPartly sunny.7 mph79%30.05 "Hg7 mi
8:53 AM74 °FLow clouds.7 mph85%30.06 "Hg7 mi
7:53 AM72 °FLow clouds.6 mph91%30.05 "Hg7 mi
Weather by CustomWeather, © 2015

See weather overviewHow to use our weather pages